Wind_Speed
16 16 17 17 18 19 20 21 23 25 27 30 32 33 35 37 38 40 42 42 44 45 46 46 47 47 47 47 47 47 47 47 46 46 45 44 44 44 43 43 43 41 41
16 17 17 18 19 20 22 24 26 29 31 34 36 38 40 42 44 45 47 48 48 49 50 51 51 51 51 51 50 50 50 50 50 49 48 48 47 47 47 47 47 46 45
18 19 19 20 21 22 24 26 29 32 35 37 40 42 45 47 49 50 51 53 54 54 54 54 55 55 55 55 55 55 55 54 53 52 52 51 51 51 51 51 51 50 49
20 21 22 22 23 24 27 29 32 35 38 41 43 45 47 49 51 53 55 57 58 59 58 58 58 59 59 59 59 59 59 58 57 57 56 55 55 55 55 55 55 55 54
24 25 25 25 27 28 30 33 36 39 41 43 45 47 49 51 53 55 57 58 60 60 60 61 60 61 62 62 62 62 62 62 62 61 61 61 61 61 60 60 60 59 59
27 28 29 29 30 32 34 37 40 42 44 46 47 49 51 52 54 57 58 59 60 60 59 59 58 58 58 59 61 61 62 62 63 64 64 65 65 65 65 64 65 64 64
31 31 32 32 34 36 38 40 43 45 46 48 49 51 52 54 56 57 58 58 58 57 55 54 53 53 52 53 55 56 57 58 60 61 62 63 64 65 65 66 67 67 68
33 34 35 35 37 39 41 44 46 48 49 51 52 53 54 56 58 57 56 55 54 52 50 50 49 49 49 49 50 50 52 54 56 57 58 60 62 63 64 65 66 68 69
34 36 37 38 40 43 44 47 49 51 53 54 54 55 56 57 58 57 55 52 49 48 48 48 47 47 48 48 49 49 50 51 53 55 56 57 59 61 62 63 64 66 67
38 40 41 42 44 46 49 51 52 54 55 56 57 57 57 57 56 54 53 51 48 46 47 47 49 50 51 51 51 52 53 53 54 55 56 56 57 58 59 60 62 63 65
44 45 45 46 49 51 52 54 56 57 58 58 58 58 57 57 55 54 52 50 49 49 50 51 52 54 55 56 56 56 56 56 56 56 57 57 57 57 58 59 60 61 62
48 49 50 51 53 55 56 57 58 58 58 58 58 58 57 56 55 54 52 52 52 53 54 56 58 59 60 61 61 61 60 59 59 59 58 58 57 57 58 58 59 60 60
52 53 54 55 56 57 58 58 59 59 58 58 58 57 57 56 55 55 55 55 56 57 59 61 62 63 64 65 65 64 63 62 61 60 59 58 58 57 56 56 56 56 57
55 56 56 56 56 57 58 59 59 59 59 58 58 57 56 56 56 56 57 59 60 61 63 64 64 65 65 65 65 64 63 62 61 59 58 57 56 56 55 54 54 54 54
55 54 53 53 55 57 58 58 58 58 58 57 57 56 55 56 57 58 60 62 64 64 65 64 64 63 63 62 62 61 60 58 57 55 54 54 54 53 52 52 52 51 52
51 51 52 53 55 57 57 58 58 57 56 56 55 55 56 57 59 61 62 64 65 66 66 62 60 57 56 56 56 55 54 52 51 50 49 49 49 49 49 49 49 49 49
50 51 52 54 55 56 56 56 56 55 55 55 56 57 58 60 61 62 63 63 63 63 61 56 53 50 49 49 48 48 46 45 44 43 43 43 43 44 44 44 44 44 45
50 51 52 54 55 55 55 55 54 54 55 56 57 58 59 61 61 61 60 58 56 54 51 47 46 44 43 43 42 41 40 38 38 37 36 37 37 38 40 40 41 41 42
49 51 52 53 53 53 53 53 54 55 56 57 58 59 60 59 58 56 53 49 47 45 43 41 39 38 37 37 36 35 34 33 31 31 31 31 32 33 35 36 37 38 39
50 51 52 52 52 52 52 53 54 56 57 58 59 58 57 55 52 48 44 42 40 38 38 36 33 32 31 30 29 27 26 25 24 24 24 25 27 28 30 32 34 36 37
49 50 50 50 51 51 52 54 55 57 57 57 55 54 51 48 44 41 38 37 35 34 32 29 26 25 24 23 21 19 18 18 18 18 20 22 24 25 27 29 31 33 35
49 49 49 49 50 52 53 55 55 56 55 53 51 48 45 42 39 36 34 32 31 28 25 22 20 18 17 15 14 13 12 12 13 14 16 18 20 22 25 27 29 31 34
47 48 48 50 51 53 54 54 53 52 51 48 45 42 39 37 34 31 29 27 24 20 17 15 13 12 10 9 8 7 7 7 8 10 12 14 16 19 22 24 27 30 33
46 48 49 51 52 52 52 51 49 47 45 43 39 36 33 30 27 25 22 19 15 12 9 8 7 5 3 3 3 3 4 4 5 7 8 11 13 16 18 21 24 27 30
47 49 50 50 50 49 48 46 44 42 39 37 34 30 26 24 21 17 14 11 7 5 3 2 0 1 2 3 3 3 3 2 3 4 6 8 10 12 14 15 18 20 23
48 49 49 48 46 44 42 40 38 36 34 31 28 24 20 16 13 10 7 4 1 1 2 4 5 5 5 4 4 3 2 2 1 2 4 5 6 7 8 9 11 13 16
Wind_Direction
306 306 304 303 302 302 302 303 303 302 300 299 297 295 293 290 288 287 285 284 282 280 279 278 277 275 274 272 270 268 267 266 265 264 263 262 262 261 261 260 260 259 257
308 306 303 301 301 301 302 303 303 302 301 299 296 294 292 290 289 287 285 284 281 280 279 278 276 275 274 273 271 269 267 266 264 263 262 262 261 260 260 260 260 259 258
307 304 303 301 300 300 301 303 303 302 301 299 297 295 292 290 288 286 285 283 281 279 277 276 275 274 273 273 271 269 268 266 264 262 261 260 260 259 259 259 259 258 257
304 302 301 300 298 299 300 302 302 301 300 298 296 294 291 289 287 286 284 282 281 279 278 276 274 273 272 272 271 270 268 266 264 263 261 260 260 259 258 257 257 257 256
299 298 297 296 295 296 298 300 301 301 300 298 295 293 290 288 286 284 283 281 279 279 277 276 274 273 272 271 270 269 268 266 264 263 262 261 260 259 258 256 255 255 255
294 292 292 290 290 292 295 298 300 300 299 298 295 292 290 287 285 283 281 279 278 277 276 275 275 273 272 271 269 268 268 267 265 264 263 261 260 259 257 256 254 254 253
290 289 288 288 289 291 295 299 301 301 300 299 296 293 290 287 285 283 281 279 278 276 275 275 274 273 273 272 270 269 268 267 266 264 263 262 261 259 257 256 255 253 252
287 286 285 285 288 291 295 299 301 301 300 299 297 294 291 288 287 284 282 279 277 276 275 275 275 274 274 273 272 271 269 268 267 265 264 262 261 260 258 257 255 253 252
289 289 287 287 290 293 296 299 300 301 300 299 297 294 291 288 286 285 283 279 277 276 276 276 276 276 275 275 274 273 272 270 268 267 265 264 262 261 258 256 256 254 252
291 291 290 292 294 296 297 299 300 300 299 298 297 295 291 289 285 283 281 279 277 276 276 277 278 278 277 277 276 275 274 272 270 268 266 265 263 261 259 257 255 253 252
293 293 293 295 297 297 298 299 300 300 299 298 296 294 291 288 285 282 279 277 277 278 278 278 278 278 278 278 277 276 275 273 271 269 267 265 263 261 259 257 255 254 252
296 295 295 297 297 298 298 298 299 299 298 297 295 292 290 287 285 282 279 279 279 280 281 281 281 280 279 278 278 277 275 273 271 270 267 265 263 261 259 257 255 253 251
296 296 297 297 297 298 298 298 298 298 297 295 293 291 289 287 285 283 282 281 281 282 282 283 282 281 280 279 278 277 275 273 271 269 267 264 262 260 258 256 254 252 249
296 297 298 297 297 298 297 298 297 297 296 294 292 290 289 288 287 285 284 283 283 283 284 284 283 282 281 280 278 277 275 273 270 268 266 262 259 257 256 254 252 250 247
298 298 298 297 297 297 297 297 297 296 295 293 292 291 290 289 288 287 287 286 285 285 285 285 284 283 281 279 278 276 274 272 269 267 263 259 256 254 252 251 249 248 246
297 298 298 297 297 297 297 297 296 295 294 293 292 292 292 291 290 289 289 288 288 287 287 286 285 283 281 279 277 275 273 271 269 265 261 257 253 251 249 248 247 246 244
298 298 297 297 297 297 297 296 295 295 294 294 294 294 294 293 293 292 292 291 290 289 288 287 285 283 281 279 277 275 273 271 268 263 258 254 250 248 246 245 245 244 241
299 299 298 297 297 297 296 296 295 295 296 296 296 296 296 296 295 294 293 292 291 290 288 287 285 283 281 278 277 275 273 270 266 261 255 251 247 245 244 243 242 241 239
298 298 298 298 298 297 297 297 297 297 298 298 298 299 299 298 297 296 295 293 291 291 290 289 287 284 281 279 276 274 272 269 264 259 254 249 244 242 241 241 240 239 239
299 299 299 298 298 298 299 299 299 300 300 300 301 301 300 299 298 296 295 293 293 292 292 290 287 284 281 278 276 273 269 266 261 256 250 245 242 241 241 241 240 239 237
300 300 299 299 300 300 301 301 302 302 303 303 303 302 301 300 298 296 295 295 294 294 293 290 288 284 281 278 275 270 265 261 256 251 246 243 242 243 243 242 242 239 238
301 301 301 302 303 303 304 304 304 305 305 304 304 303 302 300 298 297 296 295 295 294 292 290 288 285 282 277 273 266 260 254 250 246 245 245 246 246 246 245 243 241 239
302 303 304 305 305 306 306 307 307 307 306 306 305 304 303 301 299 298 297 297 296 294 291 289 288 285 280 276 268 256 250 245 241 242 245 248 251 252 251 249 246 244 242
305 306 307 308 308 309 309 309 309 308 308 308 307 306 305 303 301 300 299 298 299 297 291 289 289 286 272 252 234 224 217 221 234 243 251 258 260 257 254 254 252 249 246
308 309 310 310 311 311 311 311 310 310 310 310 310 309 308 306 305 304 302 301 301 294 285 285 254 124 127 139 149 158 176 204 225 250 268 272 269 265 261 259 257 251 246
310 311 312 313 313 313 312 312 313 313 314 313 312 311 309 308 308 310 311 309 296 159 127 120 117 116 116 124 134 137 141 153 223 278 289 289 281 276 268 267 263 252 243
Height
5857 5856 5854 5852 5850 5848 5847 5845 5843 5841 5839 5837 5835 5832 5830 5827 5825 5822 5819 5818 5815 5813 5811 5809 5808 5807 5806 5806 5806 5806 5806 5806 5806 5807 5808 5809 5810 5812 5813 5815 5816 5817 5819
5853 5851 5849 5847 5845 5843 5841 5839 5836 5834 5831 5829 5826 5823 5820 5817 5815 5812 5808 5806 5804 5802 5800 5798 5796 5795 5794 5793 5793 5793 5793 5794 5794 5795 5796 5797 5799 5800 5802 5804 5806 5807 5809
5848 5846 5844 5842 5839 5837 5834 5832 5829 5826 5823 5820 5817 5814 5810 5807 5803 5800 5797 5793 5791 5789 5787 5785 5783 5782 5781 5780 5780 5780 5780 5780 5781 5782 5783 5784 5786 5788 5790 5792 5794 5796 5799
5843 5841 5838 5836 5833 5830 5827 5825 5822 5818 5815 5811 5807 5804 5799 5796 5792 5788 5784 5780 5776 5773 5772 5770 5769 5767 5766 5765 5765 5765 5765 5765 5766 5767 5769 5771 5773 5775 5777 5779 5781 5784 5787
5838 5835 5832 5829 5826 5823 5820 5817 5814 5810 5805 5801 5797 5792 5788 5784 5779 5775 5770 5766 5762 5759 5756 5754 5753 5752 5751 5749 5749 5749 5749 5749 5750 5752 5753 5755 5757 5760 5762 5764 5767 5770 5773
5831 5828 5825 5822 5819 5816 5812 5809 5805 5800 5795 5790 5786 5780 5776 5770 5766 5760 5756 5751 5747 5744 5741 5739 5737 5736 5734 5733 5733 5732 5732 5732 5733 5734 5736 5738 5740 5743 5745 5748 5751 5754 5758
5823 5820 5817 5814 5811 5807 5803 5799 5794 5789 5784 5779 5773 5768 5762 5756 5751 5745 5741 5736 5732 5729 5726 5724 5722 5720 5719 5718 5717 5716 5716 5716 5717 5717 5719 5720 5722 5725 5728 5731 5734 5737 5741
5814 5811 5807 5804 5801 5797 5793 5788 5783 5777 5771 5766 5760 5754 5749 5743 5735 5730 5726 5721 5717 5714 5712 5709 5707 5706 5704 5703 5702 5701 5701 5701 5701 5701 5702 5703 5705 5707 5710 5713 5716 5720 5724
5805 5801 5798 5794 5790 5785 5781 5776 5770 5765 5758 5751 5745 5739 5733 5727 5721 5715 5710 5707 5703 5700 5697 5695 5693 5692 5690 5689 5687 5687 5686 5686 5685 5685 5686 5686 5688 5689 5691 5695 5698 5701 5705
5794 5791 5787 5782 5778 5773 5768 5763 5757 5751 5744 5737 5730 5724 5718 5711 5706 5702 5697 5693 5690 5687 5684 5682 5679 5677 5675 5674 5673 5672 5670 5670 5669 5669 5669 5670 5671 5672 5674 5677 5680 5683 5687
5783 5779 5775 5770 5765 5760 5755 5749 5743 5736 5729 5722 5715 5708 5702 5696 5691 5687 5684 5680 5677 5674 5671 5668 5665 5662 5660 5658 5656 5655 5654 5653 5652 5652 5652 5653 5654 5655 5657 5659 5662 5665 5669
5771 5767 5762 5757 5752 5747 5741 5734 5728 5721 5714 5707 5700 5693 5687 5682 5677 5672 5669 5666 5663 5660 5656 5652 5649 5646 5643 5640 5639 5637 5636 5635 5634 5634 5634 5635 5636 5637 5639 5642 5644 5648 5651
5758 5754 5749 5744 5738 5733 5726 5720 5713 5706 5699 5693 5686 5679 5673 5668 5663 5658 5655 5651 5648 5644 5640 5635 5630 5627 5624 5621 5619 5617 5616 5615 5614 5614 5615 5616 5618 5619 5622 5624 5627 5630 5634
5745 5741 5736 5730 5724 5718 5712 5705 5698 5691 5685 5678 5672 5666 5659 5654 5649 5644 5639 5635 5631 5628 5623 5617 5611 5607 5604 5601 5598 5597 5595 5594 5594 5595 5596 5597 5599 5601 5604 5607 5610 5614 5619
5732 5727 5722 5716 5711 5704 5697 5690 5684 5677 5670 5663 5657 5651 5646 5640 5635 5629 5623 5618 5613 5609 5606 5599 5592 5586 5583 5580 5578 5576 5575 5574 5575 5576 5576 5578 5581 5584 5587 5591 5595 5599 5604
5720 5715 5709 5703 5697 5690 5683 5676 5669 5662 5656 5649 5643 5637 5631 5625 5619 5612 5606 5600 5594 5588 5585 5580 5573 5568 5563 5561 5559 5557 5557 5557 5557 5558 5559 5561 5564 5568 5572 5576 5580 5585 5589
5708 5702 5696 5689 5683 5677 5670 5663 5655 5648 5642 5635 5628 5622 5616 5609 5603 5595 5588 5582 5575 5569 5565 5562 5556 5551 5547 5544 5543 5541 5541 5541 5541 5542 5544 5547 5550 5554 5558 5562 5567 5571 5576
5695 5689 5683 5676 5670 5663 5656 5649 5642 5635 5628 5621 5614 5607 5600 5593 5586 5578 5571 5564 5558 5552 5548 5546 5541 5537 5533 5531 5529 5528 5528 5528 5528 5529 5531 5534 5538 5542 5546 5550 5555 5559 5564
5683 5676 5670 5664 5657 5650 5643 5636 5629 5621 5614 5606 5599 5591 5584 5576 5569 5562 5555 5549 5544 5539 5535 5532 5529 5525 5522 5519 5518 5517 5517 5517 5517 5519 5521 5524 5528 5532 5536 5540 5544 5548 5553
5670 5664 5657 5651 5644 5636 5629 5622 5615 5607 5599 5592 5583 5575 5567 5560 5554 5547 5542 5536 5532 5528 5524 5520 5517 5514 5512 5510 5509 5508 5508 5509 5510 5511 5514 5516 5520 5523 5527 5531 5534 5538 5542
5658 5652 5645 5638 5630 5623 5616 5608 5600 5592 5585 5577 5569 5560 5553 5546 5540 5535 5531 5526 5522 5518 5514 5511 5508 5506 5504 5503 5502 5502 5502 5503 5504 5506 5508 5511 5514 5517 5519 5522 5525 5529 5532
5646 5639 5632 5625 5617 5610 5602 5594 5586 5578 5570 5562 5555 5547 5540 5534 5529 5525 5520 5516 5513 5509 5506 5504 5502 5500 5499 5498 5498 5498 5499 5500 5501 5503 5504 5506 5508 5510 5512 5514 5516 5519 5522
5634 5627 5619 5612 5604 5597 5589 5581 5572 5564 5556 5549 5542 5535 5529 5524 5519 5515 5512 5508 5505 5503 5501 5499 5498 5497 5496 5496 5496 5496 5497 5498 5499 5500 5501 5503 5504 5504 5505 5506 5507 5509 5512
5622 5614 5607 5599 5591 5583 5576 5567 5559 5551 5544 5537 5531 5525 5520 5515 5511 5508 5505 5502 5500 5498 5497 5496 5495 5495 5495 5495 5495 5496 5496 5497 5498 5499 5499 5499 5499 5499 5499 5498 5498 5499 5500
5609 5602 5594 5587 5579 5571 5563 5556 5548 5541 5534 5528 5522 5517 5512 5508 5505 5502 5500 5498 5497 5496 5496 5495 5495 5495 5495 5496 5496 5496 5497 5497 5498 5498 5497 5496 5495 5494 5492 5492 5491 5490 5491
5597 5590 5583 5576 5568 5560 5553 5546 5539 5532 5526 5520 5515 5511 5507 5504 5501 5499 5498 5497 5496 5496 5496 5496 5497 5497 5497 5497 5498 5498 5498 5498 5498 5497 5496 5494 5492 5490 5488 5487 5485 5484 5483